Погода в Ульяновке

Россия / Омская область     54°58′16″N   73°40′18″E
темп.,
°C
ветер,
м/с
пор.,
м/с
влажн.,
%
обл.,
%
осадки,
мм/ч
давл.,
гПа
погр.,
м
13 мая, чт
чт1300:00+11ссз41152100 0.0 1021342
03:00+10ссз4953100 0.0 1021265
06:00+8ссз48536 0.0 1022240
09:00+10ссз4944100 0.0 1023515
12:00+11сз4744100 0.0 1022567
15:00+11зюз3568100 0.7 1021387
18:00+15ссз576272 0.7 1020713
21:00+12сз3384100 0.0 102031
14 мая, пт
пт1400:00+10ссв228778 0.0 102220
03:00+8ссв349069 0.0 102454
06:00+9с36880 0.0 1026144
09:00+13ссв45605 0.0 1027688
12:00+17с443323 0.0 10271167
15:00+20ссз44256 0.0 10261425
18:00+20сз34250 0.0 10261332
21:00+16зюз22375 0.0 102612
15 мая, сб
сб1500:00+14юз46445 0.0 102471
03:00+14юз4104756 0.0 1024177
06:00+14зюз3105674 0.4 1023195
09:00+21з7124133 0.0 1022489
12:00+26з810335 0.0 1020840
15:00+29з89265 0.0 10182942
18:00+29зсз69285 0.0 10172878
21:00+23зюз47417 0.1 101693
16 мая, вс
вс1600:00+17юз446757 1.3 101760
03:00+17з5106780 1.3 1017273
06:00+15зсз4107688 1.3 1017223
09:00+21сз57585 0.0 1018561
12:00+25ссз444211 0.0 10181227
15:00+27ссз553585 0.0 10172251
18:00+26ссз563416 0.0 10172390
21:00+21ссз224994 0.0 101711
17 мая, пн
пн1700:00+19зюз115393 0.0 101711
03:00+18юз345692 0.0 101745
06:00+17зюз486273 0.0 1017133
09:00+24з6104458 0.1 1017487
12:00+29з67325 0.1 10151103
15:00+31зсз79215 0.0 10143761
18:00+26с693218 0.0 1013350
21:00+24з224286 0.0 101237